• In Austria
  • List of Countries
  • For 7 days
  • Water Temperature
  • Satellite Maps
  • Weather Map
  • News
  • Weather Widgets
  • user-avatar
    Login

    Hourly Weather Djelfa

    Today, 18 October, Wednesday

    Time Temperature Precipitation Wind Pressure Humidity
    00:00 +15°C° 0 mm 2 mps 669 mmHg 39%
    01:00 +15°C° 0 mm 2 mps 668 mmHg 40%
    02:00 +14°C° 0 mm 2 mps 668 mmHg 41%
    03:00 +14°C° 0 mm 2 mps 667 mmHg 42%
    04:00 +14°C° 0 mm 2 mps 667 mmHg 43%
    05:00 +13°C° 0 mm 2 mps 667 mmHg 44%
    06:00 +13°C° 0 mm 2 mps 667 mmHg 44%
    07:00 +15°C° 0 mm 2 mps 667 mmHg 40%
    08:00 +16°C° 0 mm 2 mps 668 mmHg 35%
    09:00 +18°C° 0 mm 3 mps 668 mmHg 30%
    10:00 +19°C° 0 mm 3 mps 668 mmHg 28%
    11:00 +20°C° 0 mm 3 mps 668 mmHg 26%
    12:00 +21°C° 0 mm 4 mps 668 mmHg 24%
    13:00 +21°C° 0 mm 4 mps 667 mmHg 23%
    14:00 +22°C° 0 mm 4 mps 667 mmHg 22%
    15:00 +22°C° 0 mm 4 mps 666 mmHg 22%
    16:00 +21°C° 0 mm 4 mps 666 mmHg 23%
    17:00 +21°C° 0 mm 4 mps 666 mmHg 25%
    18:00 +20°C° 0 mm 4 mps 666 mmHg 26%
    19:00 +19°C° 0 mm 4 mps 666 mmHg 28%
    20:00 +18°C° 0 mm 4 mps 666 mmHg 30%
    21:00 +18°C° 0 mm 4 mps 666 mmHg 33%
    22:00 +17°C° 0 mm 4 mps 666 mmHg 34%
    23:00 +17°C° 0 mm 4 mps 666 mmHg 36%

    Tomorrow, 19 October, Thursday

    Time Temperature Precipitation Wind Pressure Humidity
    00:00 +17°C° 0 mm 4 mps 666 mmHg 37%
    01:00 +15°C° 0.1 mm 4 mps 665 mmHg 45%
    02:00 +15°C° 0.1 mm 4 mps 665 mmHg 53%
    03:00 +14°C° 0.1 mm 4 mps 664 mmHg 61%
    04:00 +14°C° 0.1 mm 3 mps 664 mmHg 65%
    05:00 +14°C° 0.1 mm 3 mps 664 mmHg 68%
    06:00 +14°C° 0.1 mm 2 mps 664 mmHg 71%
    07:00 +16°C° 0 mm 3 mps 664 mmHg 62%
    08:00 +16°C° 0 mm 5 mps 665 mmHg 52%
    09:00 +19°C° 0 mm 6 mps 665 mmHg 43%
    10:00 +20°C° 0 mm 7 mps 665 mmHg 40%
    11:00 +21°C° 0 mm 8 mps 665 mmHg 37%
    12:00 +22°C° 0 mm 8 mps 665 mmHg 33%
    13:00 +21°C° 0.4 mm 9 mps 665 mmHg 37%
    14:00 +19°C° 0.4 mm 9 mps 664 mmHg 41%
    15:00 +18°C° 0.4 mm 9 mps 664 mmHg 45%
    16:00 +17°C° 1.2 mm 9 mps 663 mmHg 53%
    17:00 +16°C° 1.2 mm 9 mps 663 mmHg 61%
    18:00 +15°C° 1.2 mm 8 mps 663 mmHg 68%
    19:00 +15°C° 1.2 mm 8 mps 664 mmHg 70%
    20:00 +13°C° 1.2 mm 8 mps 664 mmHg 71%
    21:00 +13°C° 1.2 mm 8 mps 665 mmHg 72%
    22:00 +13°C° 0.2 mm 8 mps 664 mmHg 72%
    23:00 +13°C° 0.2 mm 8 mps 664 mmHg 73%

    Day after tomorrow, 20 October, Friday

    Time Temperature Precipitation Wind Pressure Humidity
    00:00 +12°C° 0.2 mm 8 mps 664 mmHg 74%
    01:00 +12°C° 0.1 mm 8 mps 663 mmHg 74%
    02:00 +12°C° 0.1 mm 8 mps 663 mmHg 75%
    03:00 +12°C° 0.1 mm 7 mps 663 mmHg 76%
    04:00 +12°C° 0 mm 7 mps 663 mmHg 77%
    05:00 +11°C° 0 mm 7 mps 663 mmHg 79%
    06:00 +11°C° 0 mm 7 mps 663 mmHg 81%
    07:00 +12°C° 0 mm 7 mps 664 mmHg 72%
    08:00 +13°C° 0 mm 8 mps 665 mmHg 63%
    09:00 +15°C° 0 mm 9 mps 665 mmHg 53%
    10:00 +15°C° 0 mm 9 mps 665 mmHg 50%
    11:00 +16°C° 0 mm 9 mps 666 mmHg 47%
    12:00 +17°C° 0 mm 9 mps 666 mmHg 44%
    13:00 +17°C° 0 mm 9 mps 666 mmHg 46%
    14:00 +17°C° 0 mm 9 mps 665 mmHg 48%
    15:00 +17°C° 0 mm 10 mps 665 mmHg 50%
    16:00 +16°C° 0 mm 9 mps 666 mmHg 55%
    17:00 +16°C° 0 mm 8 mps 666 mmHg 60%
    18:00 +15°C° 0 mm 8 mps 666 mmHg 65%
    19:00 +14°C° 0 mm 7 mps 667 mmHg 68%
    20:00 +14°C° 0 mm 6 mps 667 mmHg 71%
    21:00 +14°C° 0 mm 6 mps 667 mmHg 74%
    22:00 +13°C° 0 mm 6 mps 667 mmHg 76%
    23:00 +13°C° 0 mm 5 mps 667 mmHg 79%

    21 October, Saturday

    Time Temperature Precipitation Wind Pressure Humidity
    00:00 +12°C° 0 mm 5 mps 667 mmHg 82%
    01:00 +12°C° 0 mm 5 mps 667 mmHg 83%
    02:00 +12°C° 0 mm 4 mps 667 mmHg 85%
    03:00 +11°C° 0 mm 4 mps 666 mmHg 87%
    04:00 +11°C° 0 mm 4 mps 667 mmHg 88%
    05:00 +11°C° 0 mm 4 mps 667 mmHg 89%
    06:00 +10°C° 0 mm 3 mps 667 mmHg 90%
    07:00 +12°C° 0 mm 4 mps 668 mmHg 80%
    08:00 +13°C° 0 mm 4 mps 668 mmHg 70%
    09:00 +14°C° 0 mm 4 mps 669 mmHg 60%
    10:00 +17°C° 0 mm 4 mps 669 mmHg 55%
    11:00 +18°C° 0 mm 4 mps 669 mmHg 49%
    12:00 +19°C° 0 mm 4 mps 669 mmHg 44%
    13:00 +19°C° 0 mm 4 mps 669 mmHg 42%
    14:00 +20°C° 0 mm 4 mps 669 mmHg 41%
    15:00 +20°C° 0 mm 4 mps 669 mmHg 39%
    16:00 +19°C° 0 mm 3 mps 669 mmHg 43%
    17:00 +18°C° 0 mm 3 mps 669 mmHg 46%
    18:00 +18°C° 0 mm 2 mps 669 mmHg 49%
    19:00 +17°C° 0 mm 2 mps 669 mmHg 51%
    20:00 +18°C° 0 mm 1 mps 669 mmHg 53%
    21:00 +16°C° 0 mm 1 mps 669 mmHg 55%
    22:00 +15°C° 0 mm 1 mps 669 mmHg 57%
    23:00 +15°C° 0 mm 1 mps 669 mmHg 58%

    22 October, Sunday

    Time Temperature Precipitation Wind Pressure Humidity
    00:00 +14°C° 0 mm 0 mps 668 mmHg 60%
    01:00 +13°C° 0 mm 0 mps 668 mmHg 60%
    02:00 +13°C° 0 mm 0 mps 668 mmHg 61%
    03:00 +12°C° 0 mm 0 mps 668 mmHg 62%
    04:00 +12°C° 0 mm 0 mps 668 mmHg 63%
    05:00 +12°C° 0 mm 0 mps 668 mmHg 63%
    06:00 +13°C° 0 mm 1 mps 668 mmHg 63%
    07:00 +15°C° 0 mm 1 mps 668 mmHg 57%
    08:00 +16°C° 0 mm 1 mps 669 mmHg 50%
    09:00 +19°C° 0 mm 1 mps 670 mmHg 44%
    10:00 +20°C° 0 mm 1 mps 670 mmHg 40%
    11:00 +20°C° 0 mm 2 mps 669 mmHg 37%
    12:00 +21°C° 0 mm 2 mps 669 mmHg 34%
    13:00 +21°C° 0 mm 2 mps 669 mmHg 33%
    14:00 +22°C° 0 mm 3 mps 669 mmHg 33%
    15:00 +22°C° 0 mm 3 mps 668 mmHg 32%
    16:00 +21°C° 0 mm 3 mps 668 mmHg 36%
    17:00 +20°C° 0 mm 3 mps 668 mmHg 40%
    18:00 +19°C° 0 mm 3 mps 668 mmHg 44%
    19:00 +19°C° 0 mm 3 mps 668 mmHg 47%
    20:00 +18°C° 0 mm 2 mps 668 mmHg 50%
    21:00 +18°C° 0 mm 2 mps 669 mmHg 53%
    22:00 +17°C° 0 mm 2 mps 668 mmHg 56%
    23:00 +17°C° 0 mm 2 mps 668 mmHg 59%

    23 October, Monday

    Time Temperature Precipitation Wind Pressure Humidity
    00:00 +16°C° 0 mm 2 mps 668 mmHg 62%
    01:00 +15°C° 0 mm 1 mps 668 mmHg 65%
    02:00 +15°C° 0 mm 1 mps 667 mmHg 68%
    03:00 +14°C° 0 mm 1 mps 667 mmHg 72%
    04:00 +14°C° 0 mm 1 mps 667 mmHg 73%
    05:00 +14°C° 0 mm 1 mps 667 mmHg 75%
    06:00 +13°C° 0 mm 1 mps 667 mmHg 77%
    07:00 +15°C° 0 mm 1 mps 667 mmHg 70%
    08:00 +16°C° 0 mm 1 mps 668 mmHg 63%
    09:00 +17°C° 0 mm 2 mps 668 mmHg 56%
    10:00 +18°C° 0 mm 2 mps 668 mmHg 50%
    11:00 +19°C° 0 mm 2 mps 668 mmHg 45%
    12:00 +20°C° 0 mm 3 mps 668 mmHg 39%
    13:00 +21°C° 0 mm 3 mps 668 mmHg 37%
    14:00 +21°C° 0 mm 4 mps 667 mmHg 35%
    15:00 +21°C° 0 mm 4 mps 667 mmHg 33%
    16:00 +20°C° 0 mm 4 mps 667 mmHg 36%
    17:00 +19°C° 0 mm 3 mps 667 mmHg 40%
    18:00 +19°C° 0 mm 3 mps 667 mmHg 43%
    19:00 +18°C° 0 mm 3 mps 667 mmHg 45%
    20:00 +17°C° 0 mm 2 mps 667 mmHg 48%
    21:00 +17°C° 0 mm 2 mps 667 mmHg 50%
    22:00 +16°C° 0 mm 1 mps 667 mmHg 52%
    23:00 +16°C° 0 mm 1 mps 666 mmHg 54%
    Show more